Year,Month,Day,Hour,Minute,Value (Times are PST for temperature in C)
2004,08,27,00,00,15.20
2004,08,27,00,01,15.20
2004,08,27,00,02,15.20
2004,08,27,00,03,15.20
2004,08,27,00,04,15.20
2004,08,27,00,05,15.20
2004,08,27,00,06,15.20
2004,08,27,00,07,15.20
2004,08,27,00,08,15.10
2004,08,27,00,09,15.10
2004,08,27,00,10,15.10
2004,08,27,00,11,15.10
2004,08,27,00,12,15.10
2004,08,27,00,13,15.10
2004,08,27,00,14,15.10
2004,08,27,00,15,15.10
2004,08,27,00,16,15.20
2004,08,27,00,17,15.20
2004,08,27,00,18,15.20
2004,08,27,00,19,15.20
2004,08,27,00,20,15.20
2004,08,27,00,21,15.20
2004,08,27,00,22,15.20
2004,08,27,00,23,15.20
2004,08,27,00,24,15.10
2004,08,27,00,25,15.10
2004,08,27,00,26,15.10
2004,08,27,00,27,15.20
2004,08,27,00,28,15.20
2004,08,27,00,29,15.20
2004,08,27,00,30,15.20
2004,08,27,00,31,15.20
2004,08,27,00,32,15.20
2004,08,27,00,33,15.20
2004,08,27,00,34,15.20
2004,08,27,00,35,15.20
2004,08,27,00,36,15.10
2004,08,27,00,37,15.10
2004,08,27,00,38,15.20
2004,08,27,00,39,15.20
2004,08,27,00,40,15.30
2004,08,27,00,41,15.30
2004,08,27,00,42,15.30
2004,08,27,00,43,15.30
2004,08,27,00,44,15.30
2004,08,27,00,45,15.30
2004,08,27,00,46,15.30
2004,08,27,00,47,15.30
2004,08,27,00,48,15.30
2004,08,27,00,49,15.30
2004,08,27,00,50,15.30
2004,08,27,00,51,15.30
2004,08,27,00,52,15.30
2004,08,27,00,53,15.30
2004,08,27,00,54,15.30
2004,08,27,00,55,15.30
2004,08,27,00,56,15.40
2004,08,27,00,57,15.40
2004,08,27,00,58,15.40
2004,08,27,00,59,15.40
2004,08,27,01,00,15.40
2004,08,27,01,01,15.40
2004,08,27,01,02,15.40
2004,08,27,01,03,15.40
2004,08,27,01,04,15.40
2004,08,27,01,05,15.40
2004,08,27,01,06,15.40
2004,08,27,01,07,15.40
2004,08,27,01,08,15.40
2004,08,27,01,09,15.40
2004,08,27,01,10,15.50
2004,08,27,01,11,15.50
2004,08,27,01,12,15.50
2004,08,27,01,13,15.50
2004,08,27,01,14,15.50
2004,08,27,01,15,15.40
2004,08,27,01,16,15.40
2004,08,27,01,17,15.40
2004,08,27,01,18,15.40
2004,08,27,01,19,15.40
2004,08,27,01,20,15.40
2004,08,27,01,21,15.40
2004,08,27,01,22,15.40
2004,08,27,01,23,15.50
2004,08,27,01,24,15.50
2004,08,27,01,25,15.50
2004,08,27,01,26,15.50
2004,08,27,01,27,15.40
2004,08,27,01,28,15.40
2004,08,27,01,29,15.40
2004,08,27,01,30,15.30
2004,08,27,01,31,15.30
2004,08,27,01,32,15.30
2004,08,27,01,33,15.30
2004,08,27,01,34,15.30
2004,08,27,01,35,15.30
2004,08,27,01,36,15.30
2004,08,27,01,37,15.30
2004,08,27,01,38,15.40
2004,08,27,01,39,15.40
2004,08,27,01,40,15.40
2004,08,27,01,41,15.30
2004,08,27,01,42,15.30
2004,08,27,01,43,15.30
2004,08,27,01,44,15.30
2004,08,27,01,45,15.30
2004,08,27,01,46,15.30
2004,08,27,01,47,15.30
2004,08,27,01,48,15.30
2004,08,27,01,49,15.30
2004,08,27,01,50,15.30
2004,08,27,01,51,15.30
2004,08,27,01,52,15.30
2004,08,27,01,53,15.30
2004,08,27,01,54,15.30
2004,08,27,01,55,15.30
2004,08,27,01,56,15.30
2004,08,27,01,57,15.30
2004,08,27,01,58,15.30
2004,08,27,01,59,15.30
2004,08,27,02,00,15.30
2004,08,27,02,01,15.30
2004,08,27,02,02,15.30
2004,08,27,02,03,15.30
2004,08,27,02,04,15.30
2004,08,27,02,05,15.30
2004,08,27,02,06,15.30
2004,08,27,02,07,15.30
2004,08,27,02,08,15.30
2004,08,27,02,09,15.20
2004,08,27,02,10,15.20
2004,08,27,02,11,15.20
2004,08,27,02,12,15.20
2004,08,27,02,13,15.30
2004,08,27,02,14,15.30
2004,08,27,02,15,15.30
2004,08,27,02,16,15.30
2004,08,27,02,17,15.30
2004,08,27,02,18,15.30
2004,08,27,02,19,15.30
2004,08,27,02,20,15.30
2004,08,27,02,21,15.20
2004,08,27,02,22,15.20
2004,08,27,02,23,15.30
2004,08,27,02,24,15.30
2004,08,27,02,25,15.30
2004,08,27,02,26,15.30
2004,08,27,02,27,15.30
2004,08,27,02,28,15.30
2004,08,27,02,29,15.30
2004,08,27,02,30,15.30
2004,08,27,02,31,15.30
2004,08,27,02,32,15.30
2004,08,27,02,33,15.30
2004,08,27,02,34,15.30
2004,08,27,02,35,15.20
2004,08,27,02,36,15.20
2004,08,27,02,37,15.20
2004,08,27,02,38,15.20
2004,08,27,02,39,15.20
2004,08,27,02,40,15.20
2004,08,27,02,41,15.20
2004,08,27,02,42,15.20
2004,08,27,02,43,15.10
2004,08,27,02,44,15.10
2004,08,27,02,45,15.10
2004,08,27,02,46,15.00
2004,08,27,02,47,15.00
2004,08,27,02,48,15.00
2004,08,27,02,49,15.00
2004,08,27,02,50,15.00
2004,08,27,02,51,15.00
2004,08,27,02,52,15.00
2004,08,27,02,53,15.00
2004,08,27,02,54,15.00
2004,08,27,02,55,15.10
2004,08,27,02,56,15.10
2004,08,27,02,57,15.00
2004,08,27,02,58,15.00
2004,08,27,02,59,15.00
2004,08,27,03,00,15.00
2004,08,27,03,01,15.00
2004,08,27,03,02,15.00
2004,08,27,03,03,15.00
2004,08,27,03,04,15.10
2004,08,27,03,05,15.10
2004,08,27,03,06,15.10
2004,08,27,03,07,15.20
2004,08,27,03,08,15.20
2004,08,27,03,09,15.20
2004,08,27,03,10,15.20
2004,08,27,03,11,15.10
2004,08,27,03,12,15.10
2004,08,27,03,13,15.10
2004,08,27,03,14,15.10
2004,08,27,03,15,15.20
2004,08,27,03,16,15.20
2004,08,27,03,17,15.20
2004,08,27,03,18,15.20
2004,08,27,03,19,15.20
2004,08,27,03,20,15.30
2004,08,27,03,21,15.30
2004,08,27,03,22,15.30
2004,08,27,03,23,15.30
2004,08,27,03,24,15.20
2004,08,27,03,25,15.20
2004,08,27,03,26,15.20
2004,08,27,03,27,15.20
2004,08,27,03,28,15.20
2004,08,27,03,29,15.20
2004,08,27,03,30,15.20
2004,08,27,03,31,15.30
2004,08,27,03,32,15.30
2004,08,27,03,33,15.30
2004,08,27,03,34,15.30
2004,08,27,03,35,15.30
2004,08,27,03,36,15.30
2004,08,27,03,37,15.20
2004,08,27,03,38,15.20
2004,08,27,03,39,15.20
2004,08,27,03,40,15.20
2004,08,27,03,41,15.20
2004,08,27,03,42,15.20
2004,08,27,03,43,15.20
2004,08,27,03,44,15.30
2004,08,27,03,45,15.30
2004,08,27,03,46,15.30
2004,08,27,03,47,15.30
2004,08,27,03,48,15.30
2004,08,27,03,49,15.30
2004,08,27,03,50,15.30
2004,08,27,03,51,15.30
2004,08,27,03,52,15.30
2004,08,27,03,53,15.30
2004,08,27,03,54,15.30
2004,08,27,03,55,15.30
2004,08,27,03,56,15.30
2004,08,27,03,57,15.30
2004,08,27,03,58,15.30
2004,08,27,03,59,15.30
2004,08,27,04,00,15.30
2004,08,27,04,01,15.30
2004,08,27,04,02,15.30
2004,08,27,04,03,15.30
2004,08,27,04,04,15.30
2004,08,27,04,05,15.30
2004,08,27,04,06,15.30
2004,08,27,04,07,15.30
2004,08,27,04,08,15.40
2004,08,27,04,09,15.40
2004,08,27,04,10,15.40
2004,08,27,04,11,15.40
2004,08,27,04,12,15.40
2004,08,27,04,13,15.40
2004,08,27,04,14,15.30
2004,08,27,04,15,15.30
2004,08,27,04,16,15.30
2004,08,27,04,17,15.30
2004,08,27,04,18,15.30
2004,08,27,04,19,15.40
2004,08,27,04,20,15.40
2004,08,27,04,21,15.40
2004,08,27,04,22,15.40
2004,08,27,04,23,15.40
2004,08,27,04,24,15.50
2004,08,27,04,25,15.50
2004,08,27,04,26,15.40
2004,08,27,04,27,15.40
2004,08,27,04,28,15.40
2004,08,27,04,29,15.40
2004,08,27,04,30,15.40
2004,08,27,04,31,15.40
2004,08,27,04,32,15.50
2004,08,27,04,33,15.50
2004,08,27,04,34,15.50
2004,08,27,04,35,15.50
2004,08,27,04,36,15.60
2004,08,27,04,37,15.60
2004,08,27,04,38,15.60
2004,08,27,04,39,15.60
2004,08,27,04,40,15.60
2004,08,27,04,41,15.50
2004,08,27,04,42,15.50
2004,08,27,04,43,15.50
2004,08,27,04,44,15.50
2004,08,27,04,45,15.50
2004,08,27,04,46,15.60
2004,08,27,04,47,15.60
2004,08,27,04,48,15.60
2004,08,27,04,49,15.60
2004,08,27,04,50,15.60
2004,08,27,04,51,15.60
2004,08,27,04,52,15.60
2004,08,27,04,53,15.60
2004,08,27,04,54,15.60
2004,08,27,04,55,15.50
2004,08,27,04,56,15.50
2004,08,27,04,57,15.50
2004,08,27,04,58,15.50
2004,08,27,04,59,15.50
2004,08,27,05,00,15.50
2004,08,27,05,01,15.50
2004,08,27,05,02,15.60
2004,08,27,05,03,15.60
2004,08,27,05,04,15.60
2004,08,27,05,05,15.60
2004,08,27,05,06,15.70
2004,08,27,05,07,15.60
2004,08,27,05,08,15.60
2004,08,27,05,09,15.60
2004,08,27,05,10,15.60
2004,08,27,05,11,15.60
2004,08,27,05,12,15.60
2004,08,27,05,13,15.60
2004,08,27,05,14,15.60
2004,08,27,05,15,15.70
2004,08,27,05,16,15.70
2004,08,27,05,17,15.70
2004,08,27,05,18,15.70
2004,08,27,05,19,15.80
2004,08,27,05,20,15.70
2004,08,27,05,21,15.70
2004,08,27,05,22,15.70
2004,08,27,05,23,15.70
2004,08,27,05,24,15.70
2004,08,27,05,25,15.70
2004,08,27,05,26,15.80
2004,08,27,05,27,15.80
2004,08,27,05,28,15.80
2004,08,27,05,29,15.80
2004,08,27,05,30,15.80
2004,08,27,05,31,15.80
2004,08,27,05,32,15.80
2004,08,27,05,33,15.80
2004,08,27,05,34,15.80
2004,08,27,05,35,15.80
2004,08,27,05,36,15.80
2004,08,27,05,37,15.80
2004,08,27,05,38,15.80
2004,08,27,05,39,15.80
2004,08,27,05,40,15.90
2004,08,27,05,41,15.90
2004,08,27,05,42,16.00
2004,08,27,05,43,16.00
2004,08,27,05,44,16.10
2004,08,27,05,45,15.90
2004,08,27,05,46,15.90
2004,08,27,05,47,15.90
2004,08,27,05,48,15.90
2004,08,27,05,49,16.00
2004,08,27,05,50,16.10
2004,08,27,05,51,16.10
2004,08,27,05,52,16.10
2004,08,27,05,53,16.10
2004,08,27,05,54,16.20
2004,08,27,05,55,16.20
2004,08,27,05,56,16.20
2004,08,27,05,57,16.20
2004,08,27,05,58,16.20
2004,08,27,05,59,16.20
2004,08,27,06,00,16.20
2004,08,27,06,01,16.20
2004,08,27,06,02,16.10
2004,08,27,06,03,16.10
2004,08,27,06,04,16.20
2004,08,27,06,05,16.20
2004,08,27,06,06,16.20
2004,08,27,06,07,16.20
2004,08,27,06,08,16.20
2004,08,27,06,09,16.20
2004,08,27,06,10,16.20
2004,08,27,06,11,16.20
2004,08,27,06,12,16.20
2004,08,27,06,13,16.20
2004,08,27,06,14,16.20
2004,08,27,06,15,16.10
2004,08,27,06,16,16.10
2004,08,27,06,17,16.10
2004,08,27,06,18,16.10
2004,08,27,06,19,16.10
2004,08,27,06,20,16.10
2004,08,27,06,21,16.10
2004,08,27,06,22,16.10
2004,08,27,06,23,16.10
2004,08,27,06,24,16.10
2004,08,27,06,25,16.10
2004,08,27,06,26,16.10
2004,08,27,06,27,16.10
2004,08,27,06,28,16.10
2004,08,27,06,29,16.10
2004,08,27,06,30,16.10
2004,08,27,06,31,16.10
2004,08,27,06,32,16.10
2004,08,27,06,33,16.10
2004,08,27,06,34,16.10
2004,08,27,06,35,16.10
2004,08,27,06,36,16.10
2004,08,27,06,37,16.10
2004,08,27,06,38,16.10
2004,08,27,06,39,16.10
2004,08,27,06,40,16.10
2004,08,27,06,41,16.10
2004,08,27,06,42,16.10
2004,08,27,06,43,16.10
2004,08,27,06,44,16.20
2004,08,27,06,45,16.20
2004,08,27,06,46,16.20
2004,08,27,06,47,16.20
2004,08,27,06,48,16.20
2004,08,27,06,49,16.20
2004,08,27,06,50,16.10
2004,08,27,06,51,16.20
2004,08,27,06,52,16.20
2004,08,27,06,53,16.20
2004,08,27,06,54,16.20
2004,08,27,06,55,16.20
2004,08,27,06,56,16.20
2004,08,27,06,57,16.20
2004,08,27,06,58,16.30
2004,08,27,06,59,16.30
2004,08,27,07,00,16.30
2004,08,27,07,01,16.30
2004,08,27,07,02,16.30
2004,08,27,07,03,16.20
2004,08,27,07,04,16.20
2004,08,27,07,05,16.20
2004,08,27,07,06,16.30
2004,08,27,07,07,16.30
2004,08,27,07,08,16.30
2004,08,27,07,09,16.30
2004,08,27,07,10,16.30
2004,08,27,07,11,16.30
2004,08,27,07,12,16.30
2004,08,27,07,13,16.30
2004,08,27,07,14,16.30
2004,08,27,07,15,16.30
2004,08,27,07,16,16.30
2004,08,27,07,17,16.30
2004,08,27,07,18,16.40
2004,08,27,07,19,16.40
2004,08,27,07,20,16.40
2004,08,27,07,21,16.40
2004,08,27,07,22,16.40
2004,08,27,07,23,16.40
2004,08,27,07,24,16.40
2004,08,27,07,25,16.30
2004,08,27,07,26,16.30
2004,08,27,07,27,16.30
2004,08,27,07,28,16.30
2004,08,27,07,29,16.30
2004,08,27,07,30,16.30
2004,08,27,07,31,16.40
2004,08,27,07,32,16.40
2004,08,27,07,33,16.40
2004,08,27,07,34,16.40
2004,08,27,07,35,16.40
2004,08,27,07,36,16.40
2004,08,27,07,37,16.30
2004,08,27,07,38,16.30
2004,08,27,07,39,16.20
2004,08,27,07,40,16.20
2004,08,27,07,41,16.20
2004,08,27,07,42,16.20
2004,08,27,07,43,16.20
2004,08,27,07,44,16.20
2004,08,27,07,45,16.30
2004,08,27,07,46,16.30
2004,08,27,07,47,16.30
2004,08,27,07,48,16.40
2004,08,27,07,49,16.40
2004,08,27,07,50,16.40
2004,08,27,07,51,16.40
2004,08,27,07,52,16.30
2004,08,27,07,53,16.30
2004,08,27,07,54,16.30
2004,08,27,07,55,16.30
2004,08,27,07,56,16.40
2004,08,27,07,57,16.40
2004,08,27,07,58,16.40
2004,08,27,07,59,16.40
2004,08,27,08,00,16.40
2004,08,27,08,01,16.40
2004,08,27,08,02,16.40
2004,08,27,08,03,16.40
2004,08,27,08,04,16.40
2004,08,27,08,05,16.40
2004,08,27,08,06,16.40
2004,08,27,08,07,16.40
2004,08,27,08,08,16.50
2004,08,27,08,09,16.60
2004,08,27,08,10,16.70
2004,08,27,08,11,16.70
2004,08,27,08,12,16.70
2004,08,27,08,13,16.70
2004,08,27,08,14,16.60
2004,08,27,08,15,16.70
2004,08,27,08,16,16.70
2004,08,27,08,17,16.60
2004,08,27,08,18,16.70
2004,08,27,08,19,16.70
2004,08,27,08,20,16.70
2004,08,27,08,21,16.80
2004,08,27,08,22,16.80
2004,08,27,08,23,16.80
2004,08,27,08,24,16.90
2004,08,27,08,25,16.90
2004,08,27,08,26,16.90
2004,08,27,08,27,16.90
2004,08,27,08,28,16.90
2004,08,27,08,29,16.90
2004,08,27,08,30,17.00
2004,08,27,08,31,17.00
2004,08,27,08,32,17.10
2004,08,27,08,33,17.10
2004,08,27,08,34,17.10
2004,08,27,08,35,17.20
2004,08,27,08,36,17.20
2004,08,27,08,37,17.20
2004,08,27,08,38,17.20
2004,08,27,08,39,17.20
2004,08,27,08,40,17.20
2004,08,27,08,41,17.10
2004,08,27,08,42,17.10
2004,08,27,08,43,17.20
2004,08,27,08,44,17.20
2004,08,27,08,45,17.20
2004,08,27,08,46,17.20
2004,08,27,08,47,17.30
2004,08,27,08,48,17.20
2004,08,27,08,49,17.20
2004,08,27,08,50,17.30
2004,08,27,08,51,17.30
2004,08,27,08,52,17.30
2004,08,27,08,53,17.20
2004,08,27,08,54,17.20
2004,08,27,08,55,17.20
2004,08,27,08,56,17.30
2004,08,27,08,57,17.30
2004,08,27,08,58,17.30
2004,08,27,08,59,17.30
2004,08,27,09,00,17.30
2004,08,27,09,01,17.30
2004,08,27,09,02,17.30
2004,08,27,09,03,17.40
2004,08,27,09,04,17.40
2004,08,27,09,05,17.50
2004,08,27,09,06,17.40
2004,08,27,09,07,17.40
2004,08,27,09,08,17.40
2004,08,27,09,09,17.40
2004,08,27,09,10,17.50
2004,08,27,09,11,17.50
2004,08,27,09,12,17.60
2004,08,27,09,13,17.50
2004,08,27,09,14,17.50
2004,08,27,09,15,17.60
2004,08,27,09,16,17.60
2004,08,27,09,17,17.60
2004,08,27,09,18,17.70
2004,08,27,09,19,17.70
2004,08,27,09,20,17.80
2004,08,27,09,21,17.70
2004,08,27,09,22,17.80
2004,08,27,09,23,17.70
2004,08,27,09,24,17.80
2004,08,27,09,25,17.80
2004,08,27,09,26,17.80
2004,08,27,09,27,17.70
2004,08,27,09,28,17.80
2004,08,27,09,29,17.90
2004,08,27,09,30,17.90
2004,08,27,09,31,17.90
2004,08,27,09,32,18.00
2004,08,27,09,33,17.90
2004,08,27,09,34,17.80
2004,08,27,09,35,17.90
2004,08,27,09,36,17.90
2004,08,27,09,37,17.90
2004,08,27,09,38,17.90
2004,08,27,09,39,17.90
2004,08,27,09,40,17.90
2004,08,27,09,41,17.90
2004,08,27,09,42,17.90
2004,08,27,09,43,17.80
2004,08,27,09,44,17.80
2004,08,27,09,45,17.80
2004,08,27,09,46,17.80
2004,08,27,09,47,17.80
2004,08,27,09,48,17.70
2004,08,27,09,49,17.70
2004,08,27,09,50,17.70
2004,08,27,09,51,17.70
2004,08,27,09,52,17.70
2004,08,27,09,53,17.70
2004,08,27,09,54,17.70
2004,08,27,09,55,17.50
2004,08,27,09,56,17.50
2004,08,27,09,57,17.50
2004,08,27,09,58,17.50
2004,08,27,09,59,17.50
2004,08,27,10,00,17.50
2004,08,27,10,01,17.50
2004,08,27,10,02,17.60
2004,08,27,10,03,17.60
2004,08,27,10,04,17.60
2004,08,27,10,05,17.60
2004,08,27,10,06,17.60
2004,08,27,10,07,17.70
2004,08,27,10,08,17.60
2004,08,27,10,09,17.70
2004,08,27,10,10,17.70
2004,08,27,10,11,17.70
2004,08,27,10,12,17.70
2004,08,27,10,13,17.80
2004,08,27,10,14,17.80
2004,08,27,10,15,17.80
2004,08,27,10,16,17.90
2004,08,27,10,17,17.80
2004,08,27,10,18,17.90
2004,08,27,10,19,18.10
2004,08,27,10,20,18.10
2004,08,27,10,21,18.00
2004,08,27,10,22,18.10
2004,08,27,10,23,18.20
2004,08,27,10,24,18.20
2004,08,27,10,25,18.20
2004,08,27,10,26,18.20
2004,08,27,10,27,18.20
2004,08,27,10,28,18.30
2004,08,27,10,29,18.40
2004,08,27,10,30,18.50
2004,08,27,10,31,18.50
2004,08,27,10,32,18.50
2004,08,27,10,33,18.40
2004,08,27,10,34,18.50
2004,08,27,10,35,18.40
2004,08,27,10,36,18.40
2004,08,27,10,37,18.30
2004,08,27,10,38,18.30
2004,08,27,10,39,18.30
2004,08,27,10,40,18.30
2004,08,27,10,41,18.40
2004,08,27,10,42,18.40
2004,08,27,10,43,18.50
2004,08,27,10,44,18.50
2004,08,27,10,45,18.50
2004,08,27,10,46,18.50
2004,08,27,10,47,18.60
2004,08,27,10,48,18.60
2004,08,27,10,49,18.70
2004,08,27,10,50,18.70
2004,08,27,10,51,18.60
2004,08,27,10,52,18.60
2004,08,27,10,53,18.60
2004,08,27,10,54,18.60
2004,08,27,10,55,18.60
2004,08,27,10,56,18.60
2004,08,27,10,57,18.60
2004,08,27,10,58,18.60
2004,08,27,10,59,18.60
2004,08,27,11,00,18.70
2004,08,27,11,01,18.80
2004,08,27,11,02,18.80
2004,08,27,11,03,18.80
2004,08,27,11,04,18.70
2004,08,27,11,05,18.70
2004,08,27,11,06,18.60
2004,08,27,11,07,18.70
2004,08,27,11,08,18.80
2004,08,27,11,09,18.70
2004,08,27,11,10,18.80
2004,08,27,11,11,18.90
2004,08,27,11,12,18.90
2004,08,27,11,13,19.00
2004,08,27,11,14,19.10
2004,08,27,11,15,19.10
2004,08,27,11,16,19.10
2004,08,27,11,17,19.00
2004,08,27,11,18,19.10
2004,08,27,11,19,19.10
2004,08,27,11,20,19.00
2004,08,27,11,21,19.10
2004,08,27,11,22,19.10
2004,08,27,11,23,19.20
2004,08,27,11,24,19.20
2004,08,27,11,25,19.30
2004,08,27,11,26,19.40
2004,08,27,11,27,19.30
2004,08,27,11,28,19.40
2004,08,27,11,29,19.50
2004,08,27,11,30,19.40
2004,08,27,11,31,19.50
2004,08,27,11,32,19.60
2004,08,27,11,33,19.50
2004,08,27,11,34,19.50
2004,08,27,11,35,19.50
2004,08,27,11,36,19.50
2004,08,27,11,37,19.50
2004,08,27,11,38,19.50
2004,08,27,11,39,19.50
2004,08,27,11,40,19.60
2004,08,27,11,41,19.60
2004,08,27,11,42,19.60
2004,08,27,11,43,19.80
2004,08,27,11,44,19.80
2004,08,27,11,45,19.90
2004,08,27,11,46,19.90
2004,08,27,11,47,19.90
2004,08,27,11,48,19.90
2004,08,27,11,49,19.90
2004,08,27,11,50,19.90
2004,08,27,11,51,19.90
2004,08,27,11,52,19.80
2004,08,27,11,53,19.70
2004,08,27,11,54,19.70
2004,08,27,11,55,19.70
2004,08,27,11,56,19.60
2004,08,27,11,57,19.80
2004,08,27,11,58,19.80
2004,08,27,11,59,19.70
2004,08,27,12,00,19.70
2004,08,27,12,01,19.90
2004,08,27,12,02,20.00
2004,08,27,12,03,20.20
2004,08,27,12,04,20.10
2004,08,27,12,05,20.00
2004,08,27,12,06,19.90
2004,08,27,12,07,20.00
2004,08,27,12,08,20.10
2004,08,27,12,09,20.20
2004,08,27,12,10,20.20
2004,08,27,12,11,20.20
2004,08,27,12,12,20.10
2004,08,27,12,13,20.00
2004,08,27,12,14,20.10
2004,08,27,12,15,19.90
2004,08,27,12,16,19.90
2004,08,27,12,17,19.90
2004,08,27,12,18,19.90
2004,08,27,12,19,19.90
2004,08,27,12,20,20.00
2004,08,27,12,21,19.90
2004,08,27,12,22,19.80
2004,08,27,12,23,19.70
2004,08,27,12,24,19.70
2004,08,27,12,25,19.70
2004,08,27,12,26,19.60
2004,08,27,12,27,19.70
2004,08,27,12,28,19.80
2004,08,27,12,29,19.90
2004,08,27,12,30,19.90
2004,08,27,12,31,20.00
2004,08,27,12,32,19.80
2004,08,27,12,33,19.80
2004,08,27,12,34,19.70
2004,08,27,12,35,19.60
2004,08,27,12,36,19.60
2004,08,27,12,37,19.60
2004,08,27,12,38,19.70
2004,08,27,12,39,19.70
2004,08,27,12,40,19.80
2004,08,27,12,41,19.90
2004,08,27,12,42,19.90
2004,08,27,12,43,19.90
2004,08,27,12,44,19.90
2004,08,27,12,45,20.00
2004,08,27,12,46,20.00
2004,08,27,12,47,20.10
2004,08,27,12,48,20.20
2004,08,27,12,49,20.10
2004,08,27,12,50,20.20
2004,08,27,12,51,20.30
2004,08,27,12,52,20.30
2004,08,27,12,53,20.30
2004,08,27,12,54,20.20
2004,08,27,12,55,20.30
2004,08,27,12,56,20.40
2004,08,27,12,57,20.40
2004,08,27,12,58,20.50
2004,08,27,12,59,20.50
2004,08,27,13,00,20.50
2004,08,27,13,01,20.40
2004,08,27,13,02,20.20
2004,08,27,13,03,20.10
2004,08,27,13,04,20.10
2004,08,27,13,05,20.00
2004,08,27,13,06,20.00
2004,08,27,13,07,20.20
2004,08,27,13,08,20.40
2004,08,27,13,09,20.40
2004,08,27,13,10,20.50
2004,08,27,13,11,20.40
2004,08,27,13,12,20.40
2004,08,27,13,13,20.30
2004,08,27,13,14,20.50
2004,08,27,13,15,20.50
2004,08,27,13,16,20.50
2004,08,27,13,17,20.50
2004,08,27,13,18,20.50
2004,08,27,13,19,20.50
2004,08,27,13,20,20.50
2004,08,27,13,21,20.60
2004,08,27,13,22,20.70
2004,08,27,13,23,20.80
2004,08,27,13,24,20.80
2004,08,27,13,25,20.80
2004,08,27,13,26,20.80
2004,08,27,13,27,20.60
2004,08,27,13,28,20.70
2004,08,27,13,29,20.70
2004,08,27,13,30,20.80
2004,08,27,13,31,20.70
2004,08,27,13,32,20.80
2004,08,27,13,33,20.80
2004,08,27,13,34,20.90
2004,08,27,13,35,21.10
2004,08,27,13,36,21.30
2004,08,27,13,37,21.20
2004,08,27,13,38,21.20
2004,08,27,13,39,21.30
2004,08,27,13,40,21.40
2004,08,27,13,41,21.40
2004,08,27,13,42,21.50
2004,08,27,13,43,21.50
2004,08,27,13,44,21.50
2004,08,27,13,45,21.20
2004,08,27,13,46,21.20
2004,08,27,13,47,21.00
2004,08,27,13,48,21.00
2004,08,27,13,49,21.00
2004,08,27,13,50,21.10
2004,08,27,13,51,21.10
2004,08,27,13,52,21.20
2004,08,27,13,53,21.40
2004,08,27,13,54,21.30
2004,08,27,13,55,21.30
2004,08,27,13,56,21.30
2004,08,27,13,57,21.30
2004,08,27,13,58,21.40
2004,08,27,13,59,21.30
2004,08,27,14,00,21.20
2004,08,27,14,01,21.10
2004,08,27,14,02,21.00
2004,08,27,14,03,20.70
2004,08,27,14,04,20.70
2004,08,27,14,05,20.60
2004,08,27,14,06,20.70
2004,08,27,14,07,20.60
2004,08,27,14,08,20.60
2004,08,27,14,09,20.60
2004,08,27,14,10,20.70
2004,08,27,14,11,20.60
2004,08,27,14,12,20.40
2004,08,27,14,13,20.40
2004,08,27,14,14,20.50
2004,08,27,14,15,20.40
2004,08,27,14,16,20.30
2004,08,27,14,17,20.20
2004,08,27,14,18,20.20
2004,08,27,14,19,20.40
2004,08,27,14,20,20.40
2004,08,27,14,21,20.50
2004,08,27,14,22,20.60
2004,08,27,14,23,20.60
2004,08,27,14,24,20.60
2004,08,27,14,25,20.60
2004,08,27,14,26,20.60
2004,08,27,14,27,20.60
2004,08,27,14,28,20.70
2004,08,27,14,29,20.80
2004,08,27,14,30,20.90
2004,08,27,14,31,20.80
2004,08,27,14,32,20.80
2004,08,27,14,33,20.70
2004,08,27,14,34,20.50
2004,08,27,14,35,20.50
2004,08,27,14,36,20.40
2004,08,27,14,37,20.10
2004,08,27,14,38,20.10
2004,08,27,14,39,20.00
2004,08,27,14,40,20.00
2004,08,27,14,41,19.90
2004,08,27,14,42,20.10
2004,08,27,14,43,20.10
2004,08,27,14,44,20.20
2004,08,27,14,45,20.30
2004,08,27,14,46,20.30
2004,08,27,14,47,20.10
2004,08,27,14,48,20.20
2004,08,27,14,49,20.20
2004,08,27,14,50,20.20
2004,08,27,14,51,20.40
2004,08,27,14,52,20.50
2004,08,27,14,53,20.50
2004,08,27,14,54,20.50
2004,08,27,14,55,20.50
2004,08,27,14,56,20.60
2004,08,27,14,57,20.90
2004,08,27,14,58,21.10
2004,08,27,14,59,21.10
2004,08,27,15,00,21.10
2004,08,27,15,01,21.10
2004,08,27,15,02,21.10
2004,08,27,15,03,21.10
2004,08,27,15,04,21.10
2004,08,27,15,05,21.10
2004,08,27,15,06,21.10
2004,08,27,15,07,21.00
2004,08,27,15,08,21.00
2004,08,27,15,09,21.00
2004,08,27,15,10,21.00
2004,08,27,15,11,21.00
2004,08,27,15,12,20.70
2004,08,27,15,13,20.70
2004,08,27,15,14,20.70
2004,08,27,15,15,20.60
2004,08,27,15,16,20.70
2004,08,27,15,17,20.60
2004,08,27,15,18,20.50
2004,08,27,15,19,20.50
2004,08,27,15,20,20.50
2004,08,27,15,21,20.50
2004,08,27,15,22,20.60
2004,08,27,15,23,20.50
2004,08,27,15,24,20.50
2004,08,27,15,25,20.50
2004,08,27,15,26,20.60
2004,08,27,15,27,20.60
2004,08,27,15,28,20.60
2004,08,27,15,29,20.70
2004,08,27,15,30,20.70
2004,08,27,15,31,20.60
2004,08,27,15,32,20.60
2004,08,27,15,33,20.60
2004,08,27,15,34,20.50
2004,08,27,15,35,20.60
2004,08,27,15,36,20.60
2004,08,27,15,37,20.60
2004,08,27,15,38,20.50
2004,08,27,15,39,20.50
2004,08,27,15,40,20.60
2004,08,27,15,41,20.60
2004,08,27,15,42,20.50
2004,08,27,15,43,20.40
2004,08,27,15,44,20.40
2004,08,27,15,45,20.40
2004,08,27,15,46,20.30
2004,08,27,15,47,20.30
2004,08,27,15,48,20.30
2004,08,27,15,49,20.30
2004,08,27,15,50,20.20
2004,08,27,15,51,20.30
2004,08,27,15,52,20.20
2004,08,27,15,53,20.30
2004,08,27,15,54,20.20
2004,08,27,15,55,20.10
2004,08,27,15,56,20.20
2004,08,27,15,57,20.20
2004,08,27,15,58,20.20
2004,08,27,15,59,20.20
2004,08,27,16,00,20.10
2004,08,27,16,01,20.00
2004,08,27,16,02,20.00
2004,08,27,16,03,19.90
2004,08,27,16,04,19.90
2004,08,27,16,05,19.90
2004,08,27,16,06,19.70
2004,08,27,16,07,19.70
2004,08,27,16,08,19.70
2004,08,27,16,09,19.70
2004,08,27,16,10,19.70
2004,08,27,16,11,19.70
2004,08,27,16,12,19.60
2004,08,27,16,13,19.60
2004,08,27,16,14,19.60
2004,08,27,16,15,19.60
2004,08,27,16,16,19.70
2004,08,27,16,17,19.60
2004,08,27,16,18,19.60
2004,08,27,16,19,19.50
2004,08,27,16,20,19.50
2004,08,27,16,21,19.50
2004,08,27,16,22,19.50
2004,08,27,16,23,19.40
2004,08,27,16,24,19.30
2004,08,27,16,25,19.30
2004,08,27,16,26,19.30
2004,08,27,16,27,19.30
2004,08,27,16,28,19.20
2004,08,27,16,29,19.30
2004,08,27,16,30,19.30
2004,08,27,16,31,19.20
2004,08,27,16,32,19.40
2004,08,27,16,33,19.50
2004,08,27,16,34,19.60
2004,08,27,16,35,19.60
2004,08,27,16,36,19.60
2004,08,27,16,37,19.70
2004,08,27,16,38,19.70
2004,08,27,16,39,19.70
2004,08,27,16,40,19.70
2004,08,27,16,41,19.80
2004,08,27,16,42,19.80
2004,08,27,16,43,19.80
2004,08,27,16,44,19.80
2004,08,27,16,45,19.70
2004,08,27,16,46,19.80
2004,08,27,16,47,19.80
2004,08,27,16,48,19.80
2004,08,27,16,49,19.70
2004,08,27,16,50,19.60
2004,08,27,16,51,19.60
2004,08,27,16,52,19.60
2004,08,27,16,53,19.60
2004,08,27,16,54,19.60
2004,08,27,16,55,19.60
2004,08,27,16,56,19.60
2004,08,27,16,57,19.70
2004,08,27,16,58,19.60
2004,08,27,16,59,19.70
2004,08,27,17,00,19.80
2004,08,27,17,01,19.80
2004,08,27,17,02,19.70
2004,08,27,17,03,19.70
2004,08,27,17,04,19.70
2004,08,27,17,05,19.60
2004,08,27,17,06,19.40
2004,08,27,17,07,19.40
2004,08,27,17,08,19.40
2004,08,27,17,09,19.30
2004,08,27,17,10,19.30
2004,08,27,17,11,19.40
2004,08,27,17,12,19.40
2004,08,27,17,13,19.40
2004,08,27,17,14,19.40
2004,08,27,17,15,19.40
2004,08,27,17,16,19.50
2004,08,27,17,17,19.60
2004,08,27,17,18,19.60
2004,08,27,17,19,19.80